Maple Lake, MN

10:51 PM CDT on May 20, 2018 (GMT -0500)
Maple Lake Municipal

Weather History for KMGG - October, 2012

Change the Weather History Date:

Saturday, October 27, 2012

  Actual Average (WUND) Record (WUND)
Temperature  
Mean Temperature 33 °F -  
Max Temperature 41 °F - - (-1)
Min Temperature 25 °F - - (-1)
Degree Days  
Heating Degree Days 32    
Moisture  
Dew Point 25 °F    
Average Humidity 75    
Maximum Humidity 98    
Minimum Humidity 45    
Precipitation  
Precipitation 0.00 in - - ()
Sea Level Pressure  
Sea Level Pressure 30.32 in    
Wind  
Wind Speed 3 mph (WSW)    
Max Wind Speed 9 mph    
Max Gust Speed -    
Visibility 10 miles    
Events      
Averages and records for this station are not official NWS values.
T = Trace of Precipitation, MM = Missing Value Source: NWS Daily Summary

Daily Weather History Graph

Daily Weather History Graph

Search for Another Location

Airport or City:

Astronomy

Oct. 27, 2012 Rise Set
Actual Time 7:48 AM CDT 6:10 PM CDT
Civil Twilight 7:18 AM CDT 6:40 PM CDT
Nautical Twilight 6:43 AM CDT 7:15 PM CDT
Astronomical Twilight 6:09 AM CDT 7:49 PM CDT
Moon 4:59 PM CDT (10/27) 5:40 AM CDT (10/27)
Length of Visible Light 11h 22m
Length of Day
10h 21m
Waxing Gibbous, 96% of the Moon is Illuminated
Oct 27
Waxing Gibbous
Oct 29
Full
Nov 6
Last Quarter
Nov 13
New
Nov 20
First Quarter

Hourly Weather History & Observations

Time (CDT) Temp. Windchill Dew Point Humidity Pressure Visibility Wind Dir Wind Speed Gust Speed Precip Events Conditions
12:14 AM 32.0 °F 27.5 °F 27.5 °F 83% 30.33 in 10.0 mi WSW 4.6 mph - N/A   Overcast
12:34 AM 32.0 °F 27.5 °F 27.3 °F 83% 30.33 in 10.0 mi WSW 4.6 mph - N/A   Overcast
12:54 AM 32.0 °F 27.5 °F 27.3 °F 83% 30.33 in 10.0 mi SW 4.6 mph - N/A   Overcast
1:14 AM 32.0 °F 28.7 °F 27.5 °F 83% 30.33 in 10.0 mi SW 3.5 mph - N/A   Overcast
1:34 AM 32.0 °F 28.7 °F 27.9 °F 85% 30.34 in 10.0 mi SSW 3.5 mph - N/A   Overcast
1:54 AM 32.0 °F 27.5 °F 27.9 °F 85% 30.33 in 10.0 mi SW 4.6 mph - N/A   Overcast
2:14 AM 32.0 °F 27.5 °F 27.9 °F 85% 30.33 in 10.0 mi SW 4.6 mph - N/A   Overcast
2:54 AM 31.8 °F 28.5 °F 28.2 °F 87% 30.32 in 10.0 mi SW 3.5 mph - N/A   Overcast
3:14 AM 31.8 °F 28.5 °F 28.4 °F 87% 30.32 in 10.0 mi WSW 3.5 mph - N/A   Overcast
3:34 AM 32.0 °F 28.7 °F 28.4 °F 87% 30.32 in 10.0 mi WSW 3.5 mph - N/A   Overcast
3:55 AM 31.6 °F - 28.4 °F 88% 30.32 in 10.0 mi Calm Calm - N/A   Overcast
4:14 AM 31.5 °F - 28.2 °F 88% 30.32 in 10.0 mi Calm Calm - N/A   Overcast
4:34 AM 31.1 °F - 28.0 °F 88% 30.32 in 10.0 mi Calm Calm - N/A   Overcast
4:55 AM 30.9 °F - 28.2 °F 90% 30.32 in 10.0 mi Calm Calm - N/A   Overcast
5:14 AM 30.9 °F 27.5 °F 28.0 °F 89% 30.32 in 10.0 mi SW 3.5 mph - N/A   Overcast
5:34 AM 31.1 °F - 27.5 °F 87% 30.33 in 10.0 mi Calm Calm - N/A   Overcast
5:54 AM 29.7 °F 26.1 °F 26.6 °F 88% 30.33 in 10.0 mi SW 3.5 mph - N/A   Scattered Clouds
6:14 AM 29.3 °F 24.3 °F 26.4 °F 89% 30.33 in 10.0 mi WSW 4.6 mph - N/A   Clear
6:34 AM 29.3 °F 25.6 °F 26.2 °F 88% 30.33 in 10.0 mi WSW 3.5 mph - N/A   Clear
6:54 AM 27.9 °F - 25.5 °F 91% 30.34 in 10.0 mi Calm Calm - N/A   Clear
7:15 AM 26.6 °F - 25.0 °F 94% 30.34 in 10.0 mi Calm Calm - N/A   Clear
7:34 AM 26.2 °F - 24.8 °F 94% 30.34 in 10.0 mi Calm Calm - N/A   Clear
7:54 AM 25.7 °F - 24.6 °F 96% 30.34 in 10.0 mi Calm Calm - N/A   Clear
8:14 AM 26.1 °F - 25.5 °F 98% 30.34 in 10.0 mi Calm Calm - N/A   Clear
8:35 AM 27.5 °F - 26.2 °F 95% 30.34 in 10.0 mi Calm Calm - N/A   Clear
8:54 AM 29.3 °F - 26.8 °F 90% 30.35 in 10.0 mi Calm Calm - N/A   Clear
9:34 AM 31.6 °F 26.0 °F 27.5 °F 85% 30.36 in 10.0 mi WSW 5.8 mph - N/A   Clear
10:14 AM 33.3 °F 30.2 °F 28.4 °F 82% 30.36 in 10.0 mi SW 3.5 mph - N/A   Clear
10:55 AM 34.9 °F - 27.3 °F 74% 30.36 in 10.0 mi Calm Calm - N/A   Clear
11:14 AM 36.3 °F 33.7 °F 27.3 °F 70% 30.35 in 10.0 mi SW 3.5 mph - N/A   Clear
11:34 AM 37.9 °F 34.4 °F 27.0 °F 65% 30.35 in 10.0 mi South 4.6 mph - N/A   Clear
11:53 AM 38.1 °F 34.6 °F 25.7 °F 61% 30.35 in 10.0 mi SW 4.6 mph - N/A   Clear
12:14 PM 39.4 °F 35.2 °F 24.8 °F 56% 30.34 in 10.0 mi SW 5.8 mph - N/A   Clear
12:34 PM 39.7 °F 33.7 °F 22.1 °F 49% 30.34 in 10.0 mi WSW 9.2 mph - N/A   Clear
12:54 PM 40.3 °F 37.1 °F 22.6 °F 49% 30.33 in 10.0 mi WSW 4.6 mph - N/A   Clear
1:15 PM 40.6 °F 37.5 °F 21.9 °F 47% 30.33 in 10.0 mi SW 4.6 mph - N/A   Clear
1:34 PM 40.3 °F 35.5 °F 22.5 °F 49% 30.33 in 10.0 mi SW 6.9 mph - N/A   Clear
1:55 PM 40.1 °F 36.1 °F 20.5 °F 45% 30.32 in 10.0 mi WSW 5.8 mph - N/A   Clear
2:14 PM 40.3 °F 35.5 °F 21.9 °F 48% 30.32 in 10.0 mi WSW 6.9 mph - N/A   Clear
2:34 PM 41.0 °F 36.4 °F 21.6 °F 46% 30.31 in 10.0 mi West 6.9 mph - N/A   Clear
2:54 PM 41.2 °F 36.6 °F 21.2 °F 45% 30.30 in 10.0 mi WSW 6.9 mph - N/A   Clear
3:14 PM 40.5 °F 36.5 °F 22.1 °F 48% 30.30 in 10.0 mi WSW 5.8 mph - N/A   Scattered Clouds
3:35 PM 41.2 °F 37.3 °F 21.6 °F 46% 30.30 in 10.0 mi West 5.8 mph - N/A   Clear
3:54 PM 40.5 °F 38.4 °F 21.6 °F 47% 30.29 in 10.0 mi West 3.5 mph - N/A   Clear
4:14 PM 40.1 °F 36.9 °F 21.2 °F 47% 30.28 in 10.0 mi NW 4.6 mph - N/A   Clear
4:35 PM 40.1 °F 36.9 °F 21.6 °F 48% 30.28 in 10.0 mi WNW 4.6 mph - N/A   Clear
4:54 PM 39.7 °F 36.5 °F 21.9 °F 49% 30.28 in 10.0 mi West 4.6 mph - N/A   Clear
5:14 PM 39.2 °F 37.0 °F 21.7 °F 50% 30.28 in 10.0 mi West 3.5 mph - N/A   Clear
5:35 PM 39.0 °F - 22.6 °F 52% 30.28 in 10.0 mi Calm Calm - N/A   Clear
5:54 PM 38.3 °F 35.9 °F 22.8 °F 54% 30.28 in 10.0 mi West 3.5 mph - N/A   Clear
6:14 PM 36.7 °F - 23.2 °F 58% 30.28 in 10.0 mi Calm Calm - N/A   Clear
6:34 PM 35.1 °F - 23.7 °F 63% 30.29 in 10.0 mi Calm Calm - N/A   Clear
6:54 PM 33.3 °F - 23.7 °F 68% 30.30 in 7.0 mi Calm Calm - N/A   Clear
7:15 PM 31.3 °F - 25.2 °F 78% 30.30 in 5.0 mi Calm Calm - N/A   Haze
7:34 PM 32.0 °F - 26.4 °F 80% 30.31 in 7.0 mi Calm Calm - N/A   Clear
7:54 PM 30.0 °F - 24.1 °F 79% 30.31 in 5.0 mi Calm Calm - N/A   Haze
8:14 PM 28.2 °F - 25.5 °F 90% 30.32 in 7.0 mi Calm Calm - N/A   Clear
8:34 PM 28.2 °F - 25.2 °F 88% 30.32 in 7.0 mi Calm Calm - N/A   Clear
8:54 PM 28.2 °F - 25.0 °F 88% 30.32 in 10.0 mi Calm Calm - N/A   Clear
9:14 PM 28.0 °F - 24.8 °F 88% 30.32 in 7.0 mi Calm Calm - N/A   Clear
9:34 PM 27.9 °F - 24.6 °F 88% 30.32 in 10.0 mi Calm Calm - N/A   Mostly Cloudy
9:54 PM 28.9 °F - 25.5 °F 87% 30.32 in 10.0 mi Calm Calm - N/A   Mostly Cloudy
10:14 PM 30.9 °F - 25.7 °F 81% 30.32 in 10.0 mi Calm Calm - N/A   Mostly Cloudy
10:34 PM 29.8 °F - 25.3 °F 83% 30.33 in 10.0 mi Calm Calm - N/A   Mostly Cloudy
10:54 PM 30.6 °F - 25.5 °F 82% 30.33 in 10.0 mi Calm Calm - N/A   Scattered Clouds
11:14 PM 27.0 °F - 24.3 °F 90% 30.33 in 10.0 mi Calm Calm - N/A   Scattered Clouds
11:34 PM 26.6 °F - 24.4 °F 92% 30.32 in 10.0 mi Calm Calm - N/A   Clear
11:54 PM 27.3 °F - 25.5 °F 93% 30.32 in 10.0 mi Calm Calm - N/A   Clear